DW9727 Weather Reports


Display with metric or nautical units.
time (UTC)temp
F
wind
direction
speed
MPH
gust
MPH
rain 1hr
in
rain 24hr
in
rain mn
in
humidity
%
barometer
mb
20260503234711 73 253 1.0 3.0 0.00 0.00 0.00 30 1007.5
20260503232710 74 202 3.0 9.0 0.00 0.00 0.00 31 1007.7
20260503231711 74 265 4.0 7.0 0.00 0.00 0.00 32 1007.6
20260503225710 75 302 3.0 5.0 0.00 0.00 0.00 36 1007.7
20260503224710 74 201 0.0 3.0 0.00 0.00 0.00 41 1007.8
20260503222711 75 0 2.0 7.0 0.00 0.00 0.00 34 1007.8
20260503220711 74 11 3.0 10.0 0.00 0.00 0.00 32 1008.0
20260503215710 74 295 2.0 8.0 0.00 0.00 0.00 31 1008.3
20260503213710 76 304 5.0 12.0 0.00 0.00 0.00 31 1008.6
20260503212711 74 69 2.0 3.0 0.00 0.00 0.00 32 1008.7
20260503211710 74 21 2.0 12.0 0.00 0.00 0.00 31 1008.8
20260503203711 73 334 3.0 12.0 0.00 0.00 0.00 35 1009.3
20260503201710 73 67 2.0 7.0 0.00 0.00 0.00 30 1009.5
20260503200711 73 317 5.0 9.0 0.00 0.00 0.00 33 1009.7
20260503195711 74 288 3.0 12.0 0.00 0.00 0.00 35 1009.9
20260503192710 74 306 6.0 13.0 0.00 0.00 0.00 34 1010.2
20260503191711 73 80 4.0 9.0 0.00 0.00 0.00 33 1010.2
20260503190710 73 53 4.0 10.0 0.00 0.00 0.00 33 1010.5
20260503185710 73 13 5.0 10.0 0.00 0.00 0.00 33 1010.6
20260503184710 73 32 10.0 13.0 0.00 0.00 0.00 38 1010.7
20260503183711 72 292 7.0 14.0 0.00 0.00 0.00 33 1010.8
20260503182710 73 301 7.0 12.0 0.00 0.00 0.00 32 1010.8
20260503181710 72 17 5.0 12.0 0.00 0.00 0.00 37 1010.9
20260503180710 72 57 2.0 12.0 0.00 0.00 0.00 33 1011.1
20260503175711 72 30 7.0 13.0 0.00 0.00 0.00 35 1011.3
20260503174710 71 292 2.0 10.0 0.00 0.00 0.00 35 1011.5
20260503172711 70 333 5.0 12.0 0.00 0.00 0.00 38 1011.6
20260503171710 71 46 6.0 12.0 0.00 0.00 0.00 36 1011.6
20260503170710 70 16 3.0 10.0 0.00 0.00 0.00 39 1011.7
20260503150711 66 49 6.0 12.0 0.00 0.00 0.00 42 1012.2
20260503110710 50 278 1.0 3.0 0.00 0.00 0.00 63 1010.3
20260503080711 55 217 10.0 16.0 0.00 0.00 0.00 44 1010.3
20260503072710 55 220 10.0 16.0 0.00 0.00 0.00 43 1010.6
20260503070710 56 215 10.0 20.0 0.00 0.00 0.00 41 1010.9
20260503054710 58 213 11.0 17.0 0.00 0.00 0.00 38 1011.1
20260503053710 59 153 11.0 17.0 0.00 0.00 0.00 37 1011.1
20260503052710 59 183 9.0 25.0 0.00 0.00 0.00 37 1011.2
20260503051711 59 212 11.0 18.0 0.00 0.00 0.00 36 1011.3
20260503050711 59 185 15.0 23.0 0.00 0.00 0.00 36 1011.2
20260503045710 60 184 12.0 20.0 0.00 0.00 0.00 36 1011.4
20260503044710 60 196 11.0 21.0 0.00 0.00 0.00 36 1011.4
20260503043710 59 199 8.0 17.0 0.00 0.00 0.00 36 1011.5
20260503041710 59 194 10.0 18.0 0.00 0.00 0.00 35 1011.5
20260503040711 59 190 10.0 15.0 0.00 0.00 0.00 36 1011.7
20260503034710 60 191 9.0 17.0 0.00 0.00 0.00 36 1012.1
20260503033711 60 178 9.0 14.0 0.00 0.00 0.00 35 1012.1
20260503032710 60 225 10.0 14.0 0.00 0.00 0.00 36 1012.2
20260503031711 60 186 8.0 13.0 0.00 0.00 0.00 35 1012.3
20260503030710 60 182 7.0 14.0 0.00 0.00 0.00 36 1012.6
20260503025711 61 184 7.0 15.0 0.00 0.00 0.00 36 1012.7
20260503024710 61 192 7.0 14.0 0.00 0.00 0.00 36 1012.8
20260503023710 61 176 5.0 9.0 0.00 0.00 0.00 36 1012.8
20260503022710 62 186 6.0 9.0 0.00 0.00 0.00 35 1012.7
20260503021711 62 190 5.0 9.0 0.00 0.00 0.00 35 1012.8
20260503020711 62 190 4.0 8.0 0.00 0.00 0.00 34 1012.8
20260503015710 63 193 5.0 8.0 0.00 0.00 0.00 34 1012.9
20260503014710 63 199 5.0 8.0 0.00 0.00 0.00 34 1013.0
20260503013710 64 195 6.0 8.0 0.00 0.00 0.00 34 1013.1
20260503012710 65 197 5.0 9.0 0.00 0.00 0.00 32 1013.2
20260503011710 66 187 3.0 6.0 0.00 0.00 0.00 31 1013.3
20260503010711 67 178 3.0 7.0 0.00 0.00 0.00 30 1013.6
20260503005710 68 207 5.0 7.0 0.00 0.00 0.00 28 1013.7
20260503004711 69 224 7.0 9.0 0.00 0.00 0.00 27 1013.9
20260503003710 69 218 7.0 16.0 0.00 0.00 0.00 27 1013.9
20260503002710 69 226 9.0 12.0 0.00 0.00 0.00 26 1014.1
20260503001710 69 226 8.0 14.0 0.00 0.00 0.00 26 1014.3